Weather Roundup
Issued by NWS

Home | Current Version | Previous Version | Graphics & Text | Print | Product List | Glossary Off
Versions: 1 2 3 4 5 6 7 8 9 10 11 12 13 14 15 16 17 18 19 20 21 22 23 24 25 26 27 28 29 30 31 32 33 34 35 36 37 38 39 40 41 42 43 44 45 46 47 48 49 50

972
NZUS93 KARX 212159
HRRWXR

CURRENT HOURLY OBSERVATIONS ACROSS
MUCH OF THE UPPER MISSISSIPPI VALLEY
NATIONAL WEATHER SERVICE LA CROSSE WI
500 PM CDT MON AUG 21 2017


...SOUTHEAST MINNESOTA...


CITY           SKY/WX    TMP DP  RH WIND       PRES   REMARKS
ROCHESTER      RAIN      66  65  96 SW13      30.01F FOG
ROCHESTER/MAYO CLOUDY    67  67  99 S8        30.01S
WINONA         DRIZZLE   70  66  88 CALM      29.99R
AUSTIN         HVY RAIN  66  63  88 SW5       30.03S
ALBERT LEA     RAIN      68  68 100 S8        30.01F
DODGE CENTER   LGT RAIN  66  64  94 S10G17    29.98F
PRESTON        RAIN      67  64  90 W7        30.02F
OWATONNA       HVY RAIN  68  66  94 SW7       30.01R
FARIBAULT      RAIN      68  66  94 S8        29.99R
$$

...ELSEWHERE IN MINNESOTA...


CITY           SKY/WX    TMP DP  RH WIND       PRES   REMARKS
MINNEAPOLIS    CLOUDY    70  65  84 SW8       29.91S
INTNL FALLS    LGT RAIN  63  59  87 VRB3      29.92S
DULUTH         CLOUDY    66  57  72 E7        29.90F
RED WING       LGT RAIN  70  63  78 S12G28    29.87F
REDWOOD FALLS  CLOUDY    68  64  87 S16G30    29.87F
MANKATO        RAIN      68  67  96 S12       29.97F
WORTHINGTON    CLOUDY    64  63  96 SE16G24   29.88R
FAIRMONT       RAIN      65  63  93 S7        30.02F
$$

...SOUTHWEST WISCONSIN...


CITY           SKY/WX    TMP DP  RH WIND       PRES   REMARKS
LA CROSSE      LGT RAIN  76  67  73 CALM      29.96R
PRAIRIE DU CHI PTSUNNY   78  64  61 SW8       29.97R
BOSCOBEL       CLOUDY    81  68  64 W6        29.96R
LONE ROCK      NOT AVBL
PLATTEVILLE    NOT AVBL
FORT MC COY    CLOUDY    73  65  76 SW3       29.99R
MAUSTON-NEW LI CLOUDY    77  67  71 W5        29.96R
VIROQUA        FAIR      73  67  83 CALM      30.01R
WIS DELLS      CLOUDY    79  67  65 W7        29.96R
$$

...ELSEWHERE IN WISCONSIN...


CITY           SKY/WX    TMP DP  RH WIND       PRES   REMARKS
MILWAUKEE      PTSUNNY   82  72  71 S9        29.96R
MADISON        CLOUDY    80  64  58 S12G22    29.95R
GREEN BAY      CLOUDY    79  71  76 SW3       29.93F
EAU CLAIRE     NOT AVBL
BLACK RVR FLS  FAIR      75  63  66 SW6       29.97R
MEDFORD        LGT RAIN  70  65  83 S7        29.94F
WAUSAU         CLOUDY    74  69  85 W7        29.92F
WIS RAPIDS     CLOUDY    78  67  68 SW10      29.97S
MARSHFIELD     CLOUDY    75  64  68 SW8       29.95F
RICE LAKE      PTSUNNY   73  67  81 SE7       29.91F
$$

...NORTHEAST IOWA...


CITY           SKY/WX    TMP DP  RH WIND       PRES   REMARKS
WATERLOO       LGT RAIN  72  68  87 N3        29.98F FOG
DUBUQUE        MOSUNNY   76  68  76 SW13      29.99F
DECORAH        CLOUDY    72  66  83 VRB5      29.99F
MASON CITY     LGT RAIN  66  64  93 N5        30.03F FOG
CHARLES CITY   LGT RAIN  70  70 100 W3        30.03R
OELWEIN        CLOUDY    73  68  83 SW9       30.00S
$$

...ELSEWHERE IN IOWA...


CITY           SKY/WX    TMP DP  RH WIND       PRES   REMARKS
DES MOINES     CLOUDY    85  71  63 SW12      29.93S HX  90
IOWA CITY      CLOUDY    80  71  74 E3        29.97
FORT DODGE     CLOUDY    66  63  88 N7        29.99R
MARSHALLTOWN   CLOUDY    76  68  76 N10       29.97S
CEDAR RAPIDS   CLOUDY    77  70  79 N5        29.97R
$$

...NORTHERN ILLINOIS...


CITY           SKY/WX    TMP DP  RH WIND       PRES   REMARKS
CHICAGO-OHARE  PTSUNNY   85  65  51 S9        29.97F
CHICAGO-MIDWAY PTSUNNY   87  68  52 S13       29.96F HX  90
MOLINE         MOSUNNY   80  69  69 S8        29.96S
ROCKFORD       PTSUNNY   80  67  64 SW12      30.00R
PEORIA         CLOUDY    80  73  79 SW8       30.01F
$$

NOTE: "FAIR" INDICATES FEW OR NO CLOUDS BELOW 12,000 FEET WITH NO
SIGNIFICANT WEATHER AND/OR OBSTRUCTIONS TO VISIBILITY. WIND
SPEEDS ARE IN MILES-PER-HOUR.




USA.gov is the U.S. government's official web portal to all federal, state and local government web resources and services.